Regional Weather Roundup
Issued by NWS

Home | Current Version | Previous Version | Graphics & Text | Print | Product List | Glossary On
Versions: 1 2 3 4 5 6 7 8 9 10 11 12 13 14 15 16 17 18 19 20 21 22 23 24 25 26 27 28 29 30 31 32 33 34 35 36 37 38 39 40 41 42 43 44 45 46 47 48 49 50
000
ASUS43 KDTX 240010
RWRMI
MICHIGAN HOURLY REGIONAL WEATHER ROUNDUP
NATIONAL WEATHER SERVICE DETROIT/PONTIAC MI
800 PM EDT WED APR 23 2014

NOTE: "FAIR" INDICATES FEW OR NO CLOUDS BELOW 12,000 FEET WITH NO
SIGNIFICANT WEATHER AND/OR OBSTRUCTION TO VISIBILITY.

MIZ047>049-052>055-059>063-066>070-074>076-081>083-240100-
SOUTHEAST LOWER MICHIGAN

CITY           SKY/WX    TMP DP  RH WIND       PRES   REMARKS
ADRIAN         PTCLDY    52  20  28 N7        30.08R
6HR MIN TEMP:  52; 6HR MAX TEMP:  58;

ALMA           MOCLDY    52  11  19 NW5       30.08S
ANN ARBOR      PTCLDY    51   9  18 N9        30.09R
BAD AXE        CLEAR     41  13  31 NE5       30.11S
6HR MIN TEMP:  41; 6HR MAX TEMP:  47;

CARO           MOCLDY    49  22  33 NE3       30.09R
DETROIT CITY   PTCLDY    51  12  21 NE9       30.09R
6HR MIN TEMP:  51; 6HR MAX TEMP:  59;

DETROIT        MOCLDY    52  18  26 N6        30.09R
6HR MIN TEMP:  52; 6HR MAX TEMP:  57;

FLINT          MOCLDY    50  18  28 S5        30.09S
6HR MIN TEMP:  50; 6HR MAX TEMP:  55;

GROSSE ILE     PTCLDY    46  39  76 SE6       30.08R
HILLSDALE      PTCLDY    51  21  30 N3        30.08R
6HR MIN TEMP:  51; 6HR MAX TEMP:  56;

HOWELL         MOCLDY    49  13  23 CALM      30.08S
6HR MIN TEMP:  48; 6HR MAX TEMP:  53;


CITY           SKY/WX    TMP DP  RH WIND       PRES   REMARKS
JACKSON        MOCLDY    51  19  28 N5        30.08R
6HR MIN TEMP:  51; 6HR MAX TEMP:  58;

LAMBERTVILLE   CLEAR     54  30  40 NE5       30.08R
LANSING        MOCLDY    52  17  25 NE3       30.09S
6HR MIN TEMP:  50; 6HR MAX TEMP:  56;

LAPEER         FAIR      49  16  26 CALM      30.08S
MASON          MOCLDY    51  22  33 CALM      30.08S
MONROE         PTCLDY    52  30  43 SE3       30.07R
MT. CLEMENS    MOCLDY    45  23  42 E7        30.08S
6HR MIN TEMP:  45; 6HR MAX TEMP:  53;

PONTIAC        MOCLDY    49  13  23 NW8       30.09R
6HR MIN TEMP:  49; 6HR MAX TEMP:  53;

PORT HOPE        N/A     40  13  33 CALM      30.10S
6HR MIN TEMP:  38; 6HR MAX TEMP:  42;

PORT HURON     CLEAR     37  21  52 NE7       30.11S WCI  32
TRI CITIES     PTCLDY    51  26  37 NE12      30.09R
6HR MIN TEMP:  51; 6HR MAX TEMP:  57;

TROY           PTCLDY    50  12  21 N6        30.10S
SAGINAW HB     PTCLDY    50  21  32 E6        30.08R
YPSILANTI      PTCLDY    51  17  26 N7        30.09R
6HR MIN TEMP:  51; 6HR MAX TEMP:  60;

$$
MIZ043>046-050>051-056>058-064>065-071>073-077>080-240100-
SOUTHWEST LOWER MICHIGAN

CITY           SKY/WX    TMP DP  RH WIND       PRES   REMARKS
BATTLE CREEK   MOCLDY    53  20  27 CALM      30.09R
6HR MIN TEMP:  50; 6HR MAX TEMP:  56;

BENTON HARBOR  CLOUDY    39  26  59 MISG      30.11F
6HR MIN TEMP:  39; 6HR MAX TEMP:  43;

BIG RAPIDS     MOCLDY    51  12  20 N7        30.07S
6HR MIN TEMP:  50; 6HR MAX TEMP:  55;

COLDWATER      MOCLDY    51  19  27 CALM      30.08S
6HR MIN TEMP:  50; 6HR MAX TEMP:  55;

FREMONT        FAIR      47  23  38 W6        30.09S
HOLLAND        MOCLDY    46  23  40 NW5       30.11F
6HR MIN TEMP:  45; 6HR MAX TEMP:  50;

GRAND RAPIDS   CLOUDY    50  27  40 W9        30.10S
6HR MIN TEMP:  50; 6HR MAX TEMP:  58;

IONIA          FAIR      54  15  22 CALM      30.07S
KALAMAZOO      MOCLDY    49  30  48 N8        30.09S
6HR MIN TEMP:  49; 6HR MAX TEMP:  57;

LUDINGTON      CLOUDY    42  18  37 N7        30.12S
MARSHALL       PTCLDY    51  20  29 N3        30.08S
MOUNT PLEASANT PTCLDY    53  16  22 NW5       30.07S
6HR MIN TEMP:  52; 6HR MAX TEMP:  57;

MUSKEGON       CLOUDY    46  20  35 NW6       30.12S
6HR MIN TEMP:  46; 6HR MAX TEMP:  49;

SOUTH HAVEN    CLOUDY    40  25  54 N5        30.11F
$$
MIZ016>042-240100-
NORTHERN LOWER MICHIGAN

CITY           SKY/WX    TMP DP  RH WIND       PRES   REMARKS
ALPENA         CLEAR     45  14  28 NW12      30.10S
6HR MIN TEMP:  45; 6HR MAX TEMP:  52;

BEAVER ISLAND  PTCLDY    38  17  43 SW6       30.14S WCI  33
6HR MIN TEMP:  38; 6HR MAX TEMP:  47;

BELLAIRE       PTCLDY    45  17  32 NW3       30.13R
6HR MIN TEMP:  45; 6HR MAX TEMP:  50;

CADILLAC       MOCLDY    44  16  32 N5        30.09S
CHARLEVOIX     PTCLDY    39  19  44 W6        30.17S WCI  35
6HR MIN TEMP:  39; 6HR MAX TEMP:  44;

FRANKFORT      MOCLDY    42  18  38 N6        30.13S
GAYLORD        CLEAR     44  16  32 NW5       30.10R
6HR MIN TEMP:  44; 6HR MAX TEMP:  49;

GRAYLING       CLEAR     48  18  30 NW6       30.11R
6HR MIN TEMP:  48; 6HR MAX TEMP:  53;

HARBOR SPRINGS PTCLDY    34  25  69 S6        30.13R WCI  29
HOUGHTON LAKE  PTCLDY    48  16  27 N7        30.09R
6HR MIN TEMP:  48; 6HR MAX TEMP:  54;

MANISTEE       MOCLDY    41  21  45 NW7       30.12S
OSCODA         CLEAR     42  14  32 SE5       30.10S
PELLSTON       PTCLDY    45  19  35 NW6       30.13R
6HR MIN TEMP:  45; 6HR MAX TEMP:  51;

ROGERS CITY    CLEAR     44  19  37 NW6       30.12R
TRAVERSE CITY  MOCLDY    43  17  35 NE5       30.12S
6HR MIN TEMP:  43; 6HR MAX TEMP:  47;

$$
MIZ007>008-015-240100-
EASTERN UPPER MICHIGAN

CITY           SKY/WX    TMP DP  RH WIND       PRES   REMARKS
KINROSS        CLEAR     39  27  60 N9        30.11S WCI  33
6HR MIN TEMP:  39; 6HR MAX TEMP:  46;

MACKINAC ISLAN PTCLDY    37  25  61 SW3       30.12R
6HR MIN TEMP:  37; 6HR MAX TEMP:  47;

NEWBERRY       PTCLDY    42  22  46 N5        30.13R
6HR MIN TEMP:  42; 6HR MAX TEMP:  44;

S. S. MARIE    CLEAR     40  24  53 NW10      30.11S WCI  33
6HR MIN TEMP:  40; 6HR MAX TEMP:  45;

MUNISING         N/A     36  25  64 CALM      30.13F
6HR MIN TEMP:  36; 6HR MAX TEMP:  41;

$$
MIZ004>006-011>014-085-240100-
CENTRAL UPPER MICHIGAN

CITY           SKY/WX    TMP DP  RH WIND       PRES   REMARKS
MANISTIQUE     PTCLDY    38  25  58 SW6       30.13S WCI  34
ESCANABA       CLOUDY    39  21  48 SE6       30.12S WCI  35
6HR MIN TEMP:  39; 6HR MAX TEMP:  46;

MENOMINEE      MOCLDY    43  10  26 S7        30.13S
6HR MIN TEMP:  43; 6HR MAX TEMP:  46;

SAWYER-GWINN   CLEAR     45  19  36 E6        30.10F
$$
MIZ001>003-009>011-084-240100-
WESTERN UPPER MICHIGAN

CITY           SKY/WX    TMP DP  RH WIND       PRES   REMARKS
IRON MOUNTAIN  MOCLDY    50  21  32 S10       30.06S
6HR MIN TEMP:  49; 6HR MAX TEMP:  56;

HOUGHTON       CLOUDY    39  21  48 E9        30.09S WCI  33
6HR MIN TEMP:  39; 6HR MAX TEMP:  47;

COPPER HARBOR    N/A     41  19  41 VRB5      30.11F
6HR MIN TEMP:  38; 6HR MAX TEMP:  46;

IRONWOOD       CLOUDY    54  19  26 SE5       29.99S
6HR MIN TEMP:  50; 6HR MAX TEMP:  55;

$$

ABBREVIATIONS USED IN REMARKS
   TC - TEMPERATURE IN CELSIUS
  WCI - WIND CHILL INDEX
   HX - HEAT INDEX
  VSB - VISIBILITY




USA.gov is the U.S. government's official web portal to all federal, state and local government web resources and services.